Regional Weather Roundup
Issued by NWS Bismarck, ND

Home | Current Version | Previous Version | Text Only | Print | Product List | Glossary On
Versions: 1 2 3 4 5 6 7 8 9 10 11 12 13 14 15 16 17 18 19 20 21 22 23 24 25 26 27 28 29 30 31 32 33 34 35 36 37 38 39 40 41 42 43 44 45 46 47 48 49 50
000
ASUS43 KBIS 041510
RWRBIS

NWR BROADCAST TEXT
NATIONAL WEATHER SERVICE BISMARCK ND
1000 AM CDT FRI SEP 04 2015

NOTE: "FAIR" INDICATES FEW OR NO CLOUDS BELOW 12,000 FEET WITH NO
SIGNIFICANT WEATHER AND/OR OBSTRUCTIONS TO VISIBILITY.


CITY           SKY/WX    TMP DP  RH WIND       PRES   REMARKS
WILLISTON      CLOUDY    61  52  72 NW21      29.84F
MINOT          CLOUDY    65  59  81 N13       29.81R
MINOT AFB      CLOUDY    64  62  95 N16       29.80R
BISMARCK       CLOUDY    74  71  91 SE6       29.74S
DICKINSON      CLOUDY    66  63  90 CALM      29.81R
GARRISON         N/A     69  65  86 NE15      29.79S
HETTINGER ARPT CLOUDY    72  62  71 N6        29.81F
JAMESTOWN      LGT RAIN  75  72  90 S13       29.77R
CROSBY         CLOUDY    61  52  72 N12       29.89R
HARVEY         CLOUDY    73  73 100 S7        29.77R
HAZEN          CLOUDY    72  66  83 NE7       29.79S
LINTON         FAIR      73  73 100 S3        29.75R
OAKES            N/A     73  73 100 SW12G18   29.79R
RUGBY          PTSUNNY   73  73 100 SE7       29.77S
STANLEY        PTSUNNY   59  59 100 NE15G25   29.81F
$$

CITY           SKY/WX    TMP DP  RH WIND       PRES   REMARKS
GRAND FORKS    CLOUDY    76  71  85 SE14      29.76S
GRAND FORKS AF CLOUDY    75  72  88 SE7       29.77S
DEVILS LAKE    CLOUDY    75  66  73 SE8       29.76S
FARGO          PTSUNNY   79  72  79 SE21      29.76F
CAVALIER       CLOUDY    73  73 100 SE5       29.79R FOG
GRAFTON        PTSUNNY   75  73  94 S12       29.78S
GWINNER          N/A     77  77 100 S12       29.80R
LANGDON        PTSUNNY   79  73  83 SE12      29.80S
ROLLA          CLOUDY    66  66 100 N14       29.83R FOG
$$

CITY           SKY/WX    TMP DP  RH WIND       PRES   REMARKS
ABERDEEN       LGT RAIN  72  67  84 NE3       29.76F
MOBRIDGE       CLOUDY    72  70  93 S7        29.73R
BUFFALO          N/A     65  61  87 N7        29.76S
RAPID CITY     MOSUNNY   72  55  55 SE3       29.82R
GLASGOW        CLOUDY    59  40  49 NE23G30   29.93F
SIDNEY         CLOUDY    61  48  63 NW17G29     N/A
WOLF POINT     MOSUNNY   63  47  55 N17       29.91F
GLENDIVE       PTSUNNY   61  48  63 N20       29.86F
MILES CITY     CLOUDY    61  46  57 N12       29.87F
BAKER          CLOUDY    64  53  67 NW12      29.87S
$$

CITY           SKY/WX    TMP DP  RH WIND       PRES   REMARKS
BILLINGS       PTSUNNY   55  43  63 NE10      29.98R
GREAT FALLS    CLOUDY    50  47  89 NE7       29.97R
REGINA         PTSUNNY   55  50  82 N12       30.00R
ESTEVAN        CLOUDY    61  52  72 N12       29.87F
$$




USA.gov is the U.S. government's official web portal to all federal, state and local government web resources and services.